Meteopurmerend
purmerend
Purmerend - Baaienwijk



My webcam  My webcam


Onweer radar Meer informatie blitzortung!


Regen radar Meer informatie rain snow radar


Bezoek onze andere website:

CandyAppleRed WebdesignWebdesign Purmerend Candy Apple Red

MeteopurmerendBlog

Template documentation
and downloads



Wind van: 01-12-2021 10:00 tot: 16:00 waarschuwing voor: Wind niveau: Geel info button
Kans op zware windstoten tot 80-90 km/uur, verder landinwaarts tot 70-80 km/uur.Kans op windstoten.Verkeer en buitenactiviteiten kunnen hinder ondervinden.Volg weerberichten en waarschuwingen.

15 daagse weersverwachting Ballerup (DK)

  • Overzicht
  • Per uur
  • 15 dagen
  • Extra
  • Vergelijk
  • Kaarten
  • Dagkaart
  • Meer »
  • Info
  • Statistieken
  • Directe link
    Temp 6h Neerslag Wind  
 08:19     15:42    Daglengte: 7:23 Vandaag
13:00
14.6 mm
9
19:00
32.1 mm
5
 08:20     15:42    Daglengte: 7:22 Morgen
01:00
19.7 mm
7
07:00
-0°
32.4 mm
9
warningclass
13:00
5.5 mm
7
warningclass
19:00
-2°
 
3
 08:22     15:41    Daglengte: 7:19 Vrijdag 03 Dec
01:00
-0°
 
4
07:00
30.2 mm
4
warningclass
13:00
16.8 mm
4
19:00
62.6 mm
5
warningclass
 08:23     15:40    Daglengte: 7:17 Zaterdag 04 Dec
01:00
56.6 mm
4
warningclass
07:00
 
3
Locatie info
Region: Hovedstaden
Latitude: 55.7301°N
Longitude: 12.3610°E
34 masl
Postcode: 2750
Temp/Neerslag /Baro Onweer/DauwpuntSneeuw
    Temp Baro 1h Neerslag Dauwpunt Wind UV BewolkingSneeuw  
 08:19     15:42    Daglengte: 7:23 Vandaag
11:00
Voelt als: -4.6°
986.8 hPa 5.5 mm
49%
0.7°
9
Windvlaag: 9.3 m/s
86%5 cm
12:00
Voelt als: -4.6°
984.8 hPa 4.3 mm
82%
1.5°
10
Windvlaag: 11.1 m/s
86%8 cm
13:00
Voelt als: -4.0°
982.4 hPa 4.8 mm
82%
2.1°
9
Windvlaag: 12 m/s
86%9 cm
14:00
Voelt als: -1.1°
980.1 hPa 5.7 mm
82%
3.6°
7
Windvlaag: 11.5 m/s
86%9 cm
15:00
Voelt als: 1.6°
978.3 hPa 6.6 mm
82%
4.6°
5
Windvlaag: 8.2 m/s
86%8 cm
16:00
Voelt als: 1.9°
977.0 hPa 5.1 mm
82%
4.4°
5
Windvlaag: 10.5 m/s
86%8 cm
17:00
Voelt als: 2.1°
975.9 hPa 4.1 mm
82%
4.3°
5
Windvlaag: 10.6 m/s
86%7 cm
18:00
Voelt als: 2.2°
974.7 hPa 5.2 mm
82%
4.7°
6
Windvlaag: 10.3 m/s
86%7 cm
19:00
Voelt als: 2.6°
973.7 hPa 5.3 mm
82%
4.7°
5
Windvlaag: 10.5 m/s
86%7 cm
20:00
Voelt als: 2.3°
973.0 hPa 4.9 mm
82%
3.9°
5
Windvlaag: 9.8 m/s
86%7 cm
21:00
Voelt als: 2.1°
972.2 hPa 4.9 mm
82%
2.9°
4
Windvlaag: 7.4 m/s
71%6 cm
22:00
Voelt als: 2.0°
972.0 hPa 4.8 mm
82%
2.5°
3
Windvlaag: 5.4 m/s
66%6 cm
23:00
Voelt als: 0.6°
971.9 hPa
75%
2.2°
4
Windvlaag: -2.2 m/s
81%6 cm
 08:20     15:42    Daglengte: 7:22 Morgen
00:00
Voelt als: -2.0°
972.3 hPa
77%
1.6°
7
Windvlaag: -5.5 m/s
85%6 cm
01:00
Voelt als: -4.5°
973.6 hPa 5.2 mm
82%
0.4°
7
Windvlaag: -8.1 m/s
84%6 cm
02:00
Voelt als: -6.4°
975.4 hPa 5.2 mm
82%
-1.0°
9
Windvlaag: -8.9 m/s
82%6 cm warningclass
03:00
-0°
Voelt als: -7.5°
977.4 hPa 5.2 mm
82%
-1.8°
10
Windvlaag: -9.7 m/s
84%6 cm warningclass
04:00
-0°
Voelt als: -7.6°
979.3 hPa 5.3 mm
82%
-2.7°
10
Windvlaag: -10.3 m/s
86%6 cm warningclass
05:00
-0°
Voelt als: -7.6°
980.9 hPa 5.4 mm
82%
-3.1°
10
Windvlaag: -9.6 m/s
86%6 cm warningclass
06:00
-0°
Voelt als: -7.4°
982.5 hPa 5.7 mm
82%
-3.1°
9
Windvlaag: -9.8 m/s
86%7 cm warningclass
07:00
-0°
Voelt als: -7.2°
984.1 hPa 5.6 mm
82%
-3.1°
9
Windvlaag: -8.6 m/s
82%7 cm warningclass
08:00
-0°
Voelt als: -6.9°
985.8 hPa 5.5 mm
82%
-2.9°
9
Windvlaag: -8.5 m/s
71%7 cm warningclass
09:00
-0°
Voelt als: -6.6°
987.4 hPa
79%
-3.2°
9
Windvlaag: -8.7 m/s
85%7 cm
10:00
Voelt als: -6.3°
988.9 hPa
18%
-3.1°
8
Windvlaag: -8.4 m/s
82%7 cm
11:00
Voelt als: -5.8°
990.3 hPa
14%
-4.1°
8
Windvlaag: -7.7 m/s
81%7 cm
12:00
Voelt als: -5.4°
991.2 hPa
14%
-4.5°
8
Windvlaag: -7.5 m/s
73%7 cm
13:00
Voelt als: -5.1°
992.2 hPa
14%
-4.8°
7
Windvlaag: -7.5 m/s
71%7 cm
14:00
Voelt als: -4.6°
993.1 hPa
14%
-4.4°
6
Windvlaag: -7.3 m/s
72%7 cm
15:00
Voelt als: -4.6°
994.2 hPa
15%
-4.1°
5
Windvlaag: -5.8 m/s
43%7 cm
16:00
-0°
Voelt als: -5.0°
995.2 hPa
14%
-5.4°
5
Windvlaag: -4.2 m/s
12%7 cm
17:00
-1°
Voelt als: -5.0°
996.0 hPa
15%
-6.7°
4
Windvlaag: -2.9 m/s
10%7 cm
18:00
-1°
Voelt als: -5.0°
996.7 hPa
14%
-6.2°
3
Windvlaag: -1.3 m/s
6%7 cm
19:00
-2°
Voelt als: -5.4°
997.2 hPa
14%
-4.6°
3
Windvlaag: 0.2 m/s
1%7 cm
20:00
-2°
Voelt als: -5.6°
997.7 hPa
14%
-3.6°
3
Windvlaag: 0.9 m/s
2%7 cm
21:00
-2°
Voelt als: -5.9°
997.7 hPa
21%
-3.4°
3
Windvlaag: 2.2 m/s
13%7 cm
22:00
-2°
Voelt als: -5.9°
997.6 hPa
72%
-3.0°
3
Windvlaag: 3.4 m/s
34%7 cm
23:00
-1°
Voelt als: -5.6°
997.2 hPa
37%
-3.4°
4
Windvlaag: 3.8 m/s
57%7 cm
 08:22     15:41    Daglengte: 7:19 Vrijdag 03 Dec
00:00
-1°
Voelt als: -4.8°
996.9 hPa
76%
-2.0°
4
Windvlaag: 4.3 m/s
41%8 cm
01:00
-0°
Voelt als: -4.7°
996.6 hPa
18%
-0.8°
4
Windvlaag: 5.7 m/s
57%9 cm
02:00
Voelt als: -4.1°
996.5 hPa
14%
-0.4°
4
Windvlaag: 3.3 m/s
59%9 cm
03:00
Voelt als: -3.6°
996.7 hPa
68%
-0.5°
4
Windvlaag: 3 m/s
74%9 cm
04:00
-0°
Voelt als: -4.6°
997.0 hPa 10.4 mm
100%
-1.0°
4
Windvlaag: 2.4 m/s
92%10 cm warningclass
05:00
Voelt als: -3.9°
997.0 hPa 6.3 mm
99%
-0.5°
4
Windvlaag: 2.1 m/s
87%10 cm warningclass
06:00
Voelt als: -3.0°
997.0 hPa 7.1 mm
94%
0.1°
4
Windvlaag: 2.2 m/s
97%10 cm warningclass
07:00
Voelt als: -2.7°
997.4 hPa 6.4 mm
92%
0.3°
4
Windvlaag: -1 m/s
92%10 cm warningclass
08:00
Voelt als: -3.0°
998.0 hPa 6.5 mm
95%
0.0°
4
Windvlaag: -0.5 m/s
97%10 cm warningclass
09:00
Voelt als: -2.9°
998.6 hPa 10.3 mm
84%
-1.1°
4
Windvlaag: 1.8 m/s
68%10 cm warningclass
10:00
Voelt als: -2.6°
998.9 hPa
83%
-1.7°
3
Windvlaag: 1.3 m/s
56%10 cm
11:00
Voelt als: -2.0°
999.1 hPa
37%
-1.8°
3
Windvlaag: 1.7 m/s
71%10 cm
12:00
Voelt als: -1.8°
999.0 hPa
32%
-3.0°
3
Windvlaag: 2.9 m/s
88%10 cm
13:00
Voelt als: -1.9°
999.0 hPa
95%
-3.0°
4
Windvlaag: 2.8 m/s
76%10 cm
14:00
Voelt als: -1.7°
998.9 hPa 10.3 mm
100%
-1.3°
3
Windvlaag: 2.1 m/s
80%10 cm
15:00
Voelt als: -1.9°
998.8 hPa 10.4 mm
100%
-0.5°
3
Windvlaag: 2.2 m/s
51%10 cm
16:00
Voelt als: -2.3°
998.8 hPa 10.6 mm
100%
-2.8°
3
Windvlaag: 2.3 m/s
57%10 cm warningclass
17:00
Voelt als: -2.8°
998.5 hPa 10.3 mm
100%
-1.0°
3
Windvlaag: 3.8 m/s
84%10 cm warningclass
18:00
Voelt als: -3.6°
998.1 hPa 10.3 mm
100%
-1.2°
4
Windvlaag: 3.8 m/s
90%10 cm warningclass
19:00
Voelt als: -3.4°
998.0 hPa 10.7 mm
100%
-2.2°
5
Windvlaag: 6 m/s
90%10 cm warningclass
20:00
Voelt als: -3.5°
997.8 hPa 6.4 mm
100%
-2.5°
5
Windvlaag: 5.6 m/s
91%10 cm warningclass
21:00
Voelt als: -3.2°
997.6 hPa 6.3 mm
100%
-1.4°
4
Windvlaag: 5.7 m/s
87%10 cm warningclass
22:00
Voelt als: -2.9°
997.3 hPa 10.6 mm
92%
-2.2°
4
Windvlaag: 7.5 m/s
93%10 cm
23:00
Voelt als: -3.7°
997.0 hPa 11.3 mm
35%
-2.4°
4
Windvlaag: 8.4 m/s
91%10 cm warningclass
 08:23     15:40    Daglengte: 7:17 Zaterdag 04 Dec
00:00
Voelt als: -3.3°
996.6 hPa 11.4 mm
34%
-1.3°
4
Windvlaag: 8.2 m/s
91%10 cm warningclass
01:00
Voelt als: -3.0°
996.1 hPa 10.6 mm
33%
-1.3°
4
Windvlaag: 8.6 m/s
89%10 cm warningclass
02:00
Voelt als: -0.8°
994.6 hPa
76%
1.2°
3
Windvlaag: 9.1 m/s
76%10 cm
03:00
Voelt als: -0.6°
994.4 hPa
21%
1.6°
3
Windvlaag: 10.3 m/s
99%10 cm
04:00
Voelt als: -1.0°
994.3 hPa
21%
1.9°
3
Windvlaag: 10.5 m/s
100%10 cm
05:00
Voelt als: -1.0°
994.0 hPa
75%
1.9°
4
Windvlaag: 9.2 m/s
99%10 cm
06:00
Voelt als: -0.4°
993.7 hPa
26%
2.8°
3
Windvlaag: 10.3 m/s
81%10 cm
07:00
Voelt als: 0.1°
993.7 hPa
32%
3.0°
3
Windvlaag: 10.8 m/s
82%10 cm
08:00
Voelt als: -2.7°
992.4 hPa 32.3 mm
100%
1.8°
5
Windvlaag: 10.5 m/s
100%10 cm
09:00
Voelt als: -2.8°
992.2 hPa 32.8 mm
100%
1.7°
5
Windvlaag: 10.6 m/s
100%10 cm
10:00
Voelt als: -2.7°
992.0 hPa 33.3 mm
100%
1.7°
5
Windvlaag: 9.5 m/s
100%10 cm
Temp/Neerslag /Baro Onweer/DauwpuntSneeuw
    Temp Baro Neerslag Dauwpunt Wind BewolkingSneeuw  
 08:19     15:42    Daglengte: 7:23 Vandaag
13:00
Voelt als: -4.0°
982.4 hPa 14.6 mm 2.1°
9
86%9 cm
16:00
Voelt als: 1.9°
977.0 hPa 17.5 mm 4.4°
5
86%8 cm
19:00
Voelt als: 2.6°
973.7 hPa 14.6 mm 4.7°
5
86%7 cm
22:00
Voelt als: 2.0°
972.0 hPa 14.6 mm 2.5°
3
66%6 cm
 08:20     15:42    Daglengte: 7:22 Morgen
01:00
Voelt als: -4.5°
973.6 hPa 5.2 mm 0.4°
7
84%6 cm
04:00
-0°
Voelt als: -7.6°
979.3 hPa 15.7 mm -2.7°
10
86%6 cm warningclass
07:00
-0°
Voelt als: -7.2°
984.1 hPa 16.6 mm -3.1°
9
82%7 cm warningclass
10:00
Voelt als: -6.3°
988.9 hPa 5.5 mm -3.1°
8
82%7 cm warningclass
13:00
Voelt als: -5.1°
992.2 hPa   -4.8°
7
71%7 cm
16:00
-0°
Voelt als: -5.0°
995.2 hPa   -5.4°
5
12%7 cm
19:00
-2°
Voelt als: -5.4°
997.2 hPa   -4.6°
3
1%7 cm
22:00
-2°
Voelt als: -5.9°
997.6 hPa   -3.0°
3
34%7 cm
 08:22     15:41    Daglengte: 7:19 Vrijdag 03 Dec
01:00
-0°
Voelt als: -4.7°
996.6 hPa   -0.8°
4
57%9 cm
04:00
-0°
Voelt als: -4.6°
997.0 hPa 10.4 mm -1.0°
4
92%10 cm warningclass
07:00
Voelt als: -2.7°
997.4 hPa 19.8 mm 0.3°
4
92%10 cm warningclass
10:00
Voelt als: -2.6°
998.9 hPa 16.8 mm -1.7°
3
56%10 cm warningclass
13:00
Voelt als: -1.9°
999.0 hPa   -3.0°
4
76%10 cm
16:00
Voelt als: -2.3°
998.8 hPa 31.3 mm -2.8°
3
57%10 cm warningclass
19:00
Voelt als: -3.4°
998.0 hPa 31.2 mm -2.2°
5
90%10 cm warningclass
22:00
Voelt als: -2.9°
997.3 hPa 23.4 mm -2.2°
4
93%10 cm
 08:23     15:40    Daglengte: 7:17 Zaterdag 04 Dec
01:00
Voelt als: -3.0°
996.1 hPa 33.3 mm -1.3°
4
89%10 cm warningclass
04:00
Voelt als: -1.0°
994.3 hPa   1.9°
3
100%10 cm
07:00
Voelt als: 0.1°
993.7 hPa   3.0°
3
82%10 cm
10:00
Voelt als: -2.7°
992.0 hPa 98.3 mm 1.7°
5
100%10 cm
13:00
Voelt als: -2.8°
990.8 hPa 104.6 mm 1.5°
5
100%11 cm
16:00
Voelt als: -3.6°
995.7 hPa 34.4 mm 1.3°
7
1%
19:00
Voelt als: -3.4°
996.1 hPa 35.5 mm 1.5°
6
1%
22:00
Voelt als: -3.1°
996.6 hPa 36.5 mm 1.7°
6
1%
 08:25     15:40    Daglengte: 7:15 Zondag 05 Dec
01:00
Voelt als: -2.4°
996.6 hPa 37.3 mm 2.1°
6
1%
04:00
Voelt als: -1.9°
997.2 hPa 38.8 mm 2.2°
5
1%
07:00
Voelt als: 1.6°
998.4 hPa 40.7 mm 2.9°
2
1%
10:00
Voelt als: -1.6°
1001.0 hPa 44.2 mm 2.3°
5
1%
13:00
Voelt als: -0.8°
1003.0 hPa 48.9 mm 2.2°
4
1%
16:00
Voelt als: -0.2°
1005.3 hPa 49.4 mm 1.6°
4
1%
19:00
Voelt als: -0.4°
1007.7 hPa 49.4 mm 0.7°
3
1%
22:00
Voelt als: -0.6°
1009.8 hPa 49.4 mm 0.3°
3
0%
 08:26     15:39    Daglengte: 7:13 Maandag 06 Dec
01:00
Voelt als: -0.9°
1010.8 hPa 49.4 mm 0.5°
3
1%
04:00
Voelt als: 0.2°
1012.4 hPa 49.4 mm 0.8°
3
1%
07:00
Voelt als: -0.3°
1013.9 hPa 49.4 mm -0.6°
3
1%
10:00
Voelt als: -0.1°
1015.7 hPa 49.5 mm 0.6°
2
1%
13:00
Voelt als: -0.2°
1015.6 hPa 49.5 mm 1.9°
3
1%
16:00
Voelt als: -0.1°
1016.5 hPa 49.5 mm 1.7°
2
1%
19:00
Voelt als: -1.0°
1017.4 hPa 49.6 mm 1.2°
3
1%
22:00
Voelt als: -0.4°
1018.5 hPa 49.6 mm 0.1°
1
1% warningclass
 08:27     15:38    Daglengte: 7:11 Dinsdag 07 Dec
01:00
Voelt als: -2.0°
1019.1 hPa 49.6 mm -0.5°
2
1% warningclass
04:00
Voelt als: -2.2°
1019.7 hPa 49.6 mm -0.7°
2
1% warningclass
07:00
Voelt als: -1.3°
1019.9 hPa 49.6 mm -0.7°
2
1% warningclass
10:00
Voelt als: -1.6°
1020.5 hPa 49.6 mm -0.5°
3
1%
13:00
Voelt als: -0.4°
1020.7 hPa 49.7 mm 0.2°
3
1%
16:00
Voelt als: 0.0°
1020.8 hPa 49.7 mm 0.1°
2
1%
19:00
Voelt als: -0.8°
1020.8 hPa 49.7 mm 0.4°
3
1%
22:00
Voelt als: -0.8°
1021.3 hPa 49.8 mm 0.4°
3
1%
 08:29     15:38    Daglengte: 7:09 Woensdag 08 Dec
01:00
Voelt als: -0.9°
1021.3 hPa 49.8 mm 0.7°
3
1%
04:00
Voelt als: -1.5°
1021.1 hPa 49.8 mm -0.1°
4
0%
07:00
Voelt als: -1.6°
1021.1 hPa 49.9 mm -0.4°
5
0%
10:00
Voelt als: -0.7°
1021.9 hPa   -0.3°
5
1%
13:00
Voelt als: 0.3°
1021.8 hPa 99.8 mm 0.2°
5
1%
19:00
Voelt als: -0.4°
1023.5 hPa 99.9 mm -1.0°
5
1%
 08:30     15:38    Daglengte: 7:08 Donderdag 09 Dec
01:00
Voelt als: -1.0°
1024.5 hPa 100.0 mm -0.8°
4
1%
07:00
Voelt als: -1.9°
1025.1 hPa 100.0 mm -1.1°
4
1%
13:00
Voelt als: -0.5°
1025.7 hPa 100.0 mm -1.1°
5
1%
19:00
Voelt als: -2.2°
1025.6 hPa 100.0 mm -1.5°
5
0%
 08:31     15:37    Daglengte: 7:06 Vrijdag 10 Dec
01:00
Voelt als: -2.5°
1025.6 hPa 100.0 mm -1.6°
5
0%
07:00
Voelt als: -3.1°
1025.7 hPa 100.0 mm -1.8°
5
1%
13:00
Voelt als: -0.9°
1026.8 hPa 100.0 mm -1.3°
4
0%
19:00
Voelt als: -1.6°
1028.6 hPa 100.0 mm -2.1°
5
1%
 08:32     15:37    Daglengte: 7:05 Zaterdag 11 Dec
01:00
Voelt als: -0.5°
1031.4 hPa 100.0 mm -1.5°
3
1%
07:00
Voelt als: 0.1°
1011.4 hPa 0.5 mm 1.9°
5
73%
13:00
Voelt als: 0.8°
1011.2 hPa 0.4 mm 2.3°
6
77%
19:00
Voelt als: 0.7°
1010.7 hPa 1.2 mm 2.3°
6
79%
 08:33     15:37    Daglengte: 7:04 Zondag 12 Dec
01:00
Voelt als: 0.5°
1011.6 hPa 0.6 mm 1.9°
5
70%
07:00
Voelt als: 0.5°
1010.9 hPa 0.7 mm 2.2°
6
81%
13:00
Voelt als: 1.6°
1011.2 hPa   2.8°
6
79%
19:00
Voelt als: 1.4°
1011.6 hPa   2.8°
6
78%
 08:35     15:37    Daglengte: 7:02 Maandag 13 Dec
01:00
Voelt als: 1.0°
1013.1 hPa 0.4 mm 2.2°
5
75%
07:00
Voelt als: 0.9°
1013.5 hPa 0.2 mm 2.1°
5
72%
13:00
Voelt als: 1.7°
1014.1 hPa 0.4 mm 2.5°
6
72%
19:00
Voelt als: 1.2°
1014.8 hPa 0.5 mm 2.7°
5
74%
 08:35     15:37    Daglengte: 7:02 Dinsdag 14 Dec
01:00
Voelt als: 1.0°
1016.3 hPa 0.4 mm 2.9°
6
70%
07:00
Voelt als: 1.3°
1016.5 hPa 0.5 mm 3.1°
5
64%
13:00
Voelt als: 2.3°
1017.9 hPa 0.3 mm 3.2°
5
65%
19:00
Voelt als: 1.9°
1018.6 hPa 0.2 mm 3.0°
4
67%
 08:36     15:37    Daglengte: 7:01 Woensdag 15 Dec
01:00
Voelt als: 1.3°
1018.5 hPa 0.8 mm 2.9°
5
73%
07:00
Voelt als: 1.8°
1017.5 hPa 0.8 mm 3.1°
4
73%
13:00
Voelt als: 2.1°
1017.3 hPa 0.6 mm 2.9°
5
72%
19:00
Voelt als: 1.8°
1016.1 hPa 0.6 mm 3.2°
5
74%
 08:37     15:37    Daglengte: 7:00 Donderdag 16 Dec
01:00
Voelt als: 1.8°
1015.5 hPa   3.5°
5
73%
07:00
Voelt als: 1.9°
1015.4 hPa 0.7 mm 3.0°
5
70%
  CAPE Lifted Index Hail Supercell Tornado SRH 3km CL BTM PRES CL TOP PRES Swiss DWD icon SMHI TS
 08:19     15:42    Daglengte: 7:23 Vandaag
11:00 0 J/kg 9.2 K 0 % 0 % 0 % 0 m²/s² 0 0 9.53 73
12:00 0 J/kg 5.3 K 0 % 0 % 0 % 0 m²/s² 0 0 5.57 73
13:00 1 J/kg 3.3 K 0 % 0 % 0 % 0 m²/s² 0 0 3.63 61
14:00 1 J/kg 1.5 K 0 % 0 % 0 % 0 m²/s² 0 0 2.34 61
15:00 1 J/kg 0.9 K 0 % 0 % 0 % 0 m²/s² 0 0 1.38 63
16:00 0 J/kg 1.5 K 0 % 0 % 0 % 0 m²/s² 0 0 3.27 63
17:00 1 J/kg 2.4 K 0 % 0 % 0 % 0 m²/s² 0 0 3.3 61
18:00 12 J/kg 2.7 K 0 % 0 % 0 % 0 m²/s² 0 0 3.15 61
19:00 20 J/kg 3.2 K 0 % 0 % 0 % 0 m²/s² 0 0 3.65 61
20:00 15 J/kg 2.7 K 0 % 0 % 0 % 0 m²/s² 0 0 3.15 61
21:00 17 J/kg 2.2 K 0 % 0 % 0 % 0 m²/s² 0 0 2.71 61
22:00 4 J/kg 2.0 K 0 % 0 % 0 % 0 m²/s² 0 0 2.63 53
23:00 1 J/kg 2.2 K 0 % 0 % 0 % 0 m²/s² 0 0 2.92 3
 08:20     15:42    Daglengte: 7:22 Morgen
00:00 1 J/kg 2.7 K 0 % 0 % 0 % 0 m²/s² 0 0 3.69 71
01:00 2 J/kg 3.3 K 0 % 0 % 0 % 0 m²/s² 0 0 4.74 71
02:00 2 J/kg 4.6 K 0 % 0 % 0 % 0 m²/s² 0 0 5.77 71
03:00 4 J/kg 6.8 K 0 % 0 % 0 % 0 m²/s² 0 0 7.43 71
04:00 10 J/kg 8.7 K 0 % 0 % 0 % 0 m²/s² 0 0 9.12 73
05:00 1 J/kg 8.9 K 0 % 0 % 0 % 0 m²/s² 0 0 9.44 73
06:00 2 J/kg 9.2 K 0 % 0 % 0 % 0 m²/s² 0 0 9.83 73
07:00 4 J/kg 9.8 K 0 % 0 % 0 % 0 m²/s² 0 0 10.4 71
08:00 3 J/kg 9.3 K 0 % 0 % 0 % 0 m²/s² 0 0 9.96 71
09:00 3 J/kg 8.8 K 0 % 0 % 0 % 0 m²/s² 0 0 9.49 3
10:00 8 J/kg 8.2 K 0 % 0 % 0 % 0 m²/s² 0 0 8.92 3
11:00 9 J/kg 7.8 K 0 % 0 % 0 % 0 m²/s² 0 0 8.61 3
12:00 0 J/kg 7.6 K 0 % 0 % 0 % 0 m²/s² 0 0 8.8 3
13:00 0 J/kg 7.3 K 0 % 0 % 0 % 0 m²/s² 0 0 10.3 3
14:00 3 J/kg 6.2 K 0 % 0 % 0 % 0 m²/s² 0 0 11.36 3
15:00 3 J/kg 5.6 K 0 % 0 % 0 % 0 m²/s² 0 0 11.39 2
16:00 0 J/kg 5.8 K 0 % 0 % 0 % 0 m²/s² 0 0 10.51 1
17:00 0 J/kg 5.2 K 0 % 0 % 0 % 0 m²/s² 0 0 8.92 2
18:00 0 J/kg 3.8 K 0 % 0 % 0 % 0 m²/s² 0 0 7.16 1
19:00 0 J/kg 3.6 K 0 % 0 % 0 % 0 m²/s² 0 0 7.5 1
20:00 0 J/kg 3.8 K 0 % 0 % 0 % 0 m²/s² 0 0 6.83 0
21:00 0 J/kg 3.6 K 0 % 0 % 0 % 0 m²/s² 0 0 5.07 2
22:00 0 J/kg 4.0 K 0 % 0 % 0 % 0 m²/s² 0 0 4.69 3
23:00 0 J/kg 2.8 K 0 % 0 % 0 % 0 m²/s² 0 0 3.46 3
 08:22     15:41    Daglengte: 7:19 Vrijdag 03 Dec
00:00 0 J/kg 2.6 K 0 % 0 % 0 % 0 m²/s² 0 0 3.44 3
01:00 178 J/kg 3.8 K 0 % 0 % 0 % 0 m²/s² 0 0 5.42 3
02:00 148 J/kg 5.0 K 0 % 0 % 0 % 0 m²/s² 0 0 6.83 3
03:00 94 J/kg 5.9 K 0 % 0 % 0 % 0 m²/s² 0 0 7.46 85
04:00 1 J/kg 7.7 K 0 % 0 % 0 % 0 m²/s² 0 0 8.45 85
05:00 0 J/kg 8.2 K 0 % 0 % 0 % 0 m²/s² 0 0 8.95 85
06:00 0 J/kg 8.0 K 0 % 0 % 0 % 0 m²/s² 0 0 8.99 85
07:00 0 J/kg 9.0 K 0 % 0 % 0 % 0 m²/s² 0 0 10.83 80
08:00 0 J/kg 9.1 K 0 % 0 % 0 % 0 m²/s² 0 0 11.23 80
09:00 0 J/kg 9.6 K 0 % 0 % 0 % 0 m²/s² 0 0 12.42 80
10:00 0 J/kg 10.5 K 0 % 0 % 0 % 0 m²/s² 0 0 14.49 3
11:00 0 J/kg 11.8 K 0 % 0 % 0 % 0 m²/s² 0 0 15.7 3
12:00 0 J/kg 12.1 K 0 % 0 % 0 % 0 m²/s² 0 0 15.46 3
13:00 0 J/kg 11.3 K 0 % 0 % 0 % 0 m²/s² 0 0 14.24 3
14:00 0 J/kg 10.7 K 0 % 0 % 0 % 0 m²/s² 0 0 13.22 61
15:00 0 J/kg 10.5 K 0 % 0 % 0 % 0 m²/s² 0 0 12.45 61
16:00 0 J/kg 10.6 K 0 % 0 % 0 % 0 m²/s² 0 0 11.41 55
17:00 0 J/kg 10.4 K 0 % 0 % 0 % 0 m²/s² 0 0 11.21 61
18:00 0 J/kg 10.2 K 0 % 0 % 0 % 0 m²/s² 0 0 11.1 61
19:00 0 J/kg 9.9 K 0 % 0 % 0 % 0 m²/s² 0 0 11.07 61
20:00 0 J/kg 9.4 K 0 % 0 % 0 % 0 m²/s² 0 0 10.24 55
21:00 0 J/kg 9.3 K 0 % 0 % 0 % 0 m²/s² 0 0 9.99 61
22:00 0 J/kg 9.4 K 0 % 0 % 0 % 0 m²/s² 0 0 10.33 3
23:00 0 J/kg 9.5 K 0 % 0 % 0 % 0 m²/s² 0 0 10.55 3
 08:23     15:40    Daglengte: 7:17 Zaterdag 04 Dec
00:00 0 J/kg 8.6 K 0 % 0 % 0 % 0 m²/s² 0 0 9.47 3
01:00 0 J/kg 8.0 K 0 % 0 % 0 % 0 m²/s² 0 0 9.05 3
02:00 0 J/kg 7.4 K 0 % 0 % 0 % 0 m²/s² 0 0 8.9 3
03:00 0 J/kg 6.3 K 0 % 0 % 0 % 0 m²/s² 0 0 7.86 3
04:00 0 J/kg 6.0 K 0 % 0 % 0 % 0 m²/s² 0 0 6.63 3
05:00 0 J/kg 5.8 K 0 % 0 % 0 % 0 m²/s² 0 0 6.34 3
06:00 1 J/kg 5.6 K 0 % 0 % 0 % 0 m²/s² 0 0 6.11 3
07:00 6 J/kg 5.9 K 0 % 0 % 0 % 0 m²/s² 0 0 6.38 3
08:00 12 J/kg 6.0 K 0 % 0 % 0 % 0 m²/s² 0 0 6.48
09:00 11 J/kg 6.3 K 0 % 0 % 0 % 0 m²/s² 0 0 6.72
10:00 11 J/kg 6.0 K 0 % 0 % 0 % 0 m²/s² 0 0 6.42
Temp Baro Wind Neerslag
  EWN Forecast EWN WRFDA DWD ICON FMI HIRLAM MET Norway GFS
 08:19     15:42    Daglengte: 7:23 Vandaag
13:00 2.1° 982.4 hPa 9.2 m/s 14.6 mm 1.6° 978.3 hPa 9.9 m/s 38.4 mm 1.6° 982.6 hPa 5.4 m/s 9.6 mm 2.1° 983.1 hPa 9.8 m/s 0.0 mm 3.2° 980.1 hPa 8.7 m/s
16:00 5.4° 977.0 hPa 4.9 m/s 17.5 mm 4.8° 973.1 hPa 5.0 m/s 55.6 mm 2.2° 977.4 hPa 2.9 m/s 8.6 mm 7.3° 977.7 hPa 5.2 m/s 0.0 mm 6.4° 975.7 hPa 7.2 m/s
19:00 5.9° 973.7 hPa 4.7 m/s 14.6 mm 4.5° 969.4 hPa 3.7 m/s 58.1 mm 4.9° 974.1 hPa 1.0 m/s 4.6 mm 7.7° 974.3 hPa 5.3 m/s 0.0 mm 5.2° 971.9 hPa 4.3 m/s
22:00 4.7° 972.0 hPa 3.2 m/s 14.6 mm 3.6° 967.9 hPa 2.8 m/s 64.4 mm 1.5° 973.2 hPa 5.7 m/s 1.9 mm 6.8° 972.5 hPa 3.0 m/s 0.0 mm
 08:20     15:42    Daglengte: 7:22 Morgen
01:00 1.3° 973.6 hPa 7.5 m/s 5.2 mm 0.4° 970.4 hPa 8.5 m/s 66.3 mm -0.6° 976.8 hPa 7.4 m/s 0.4 mm 3.6° 972.6 hPa 6.6 m/s 0.0 mm -0.0° 976.9 hPa 10.2 m/s
04:00 -0.4° 979.3 hPa 10.2 m/s 15.7 mm -0.5° 975.2 hPa 9.6 m/s 67.7 mm -0.7° 983.2 hPa 9.1 m/s 2.8 mm 0.8° 976.9 hPa 11.1 m/s 0.0 mm -0.3° 982.3 hPa 10.2 m/s
07:00 -0.4° 984.1 hPa 9.0 m/s 16.6 mm -0.4° 980.2 hPa 11.4 m/s 72.4 mm -0.9° 988.6 hPa 6.9 m/s 3.0 mm 0.7° 980.9 hPa 10.6 m/s 0.0 mm -0.4° 986.9 hPa 8.2 m/s
10:00 0.1° 988.9 hPa 8.3 m/s 5.5 mm 0.4° 984.8 hPa 8.8 m/s 74.9 mm -0.2° 993.4 hPa 5.0 m/s 0.5 mm 1.3° 985.6 hPa 11.7 m/s 0.0 mm 0.8° 991.2 hPa 6.5 m/s
13:00 0.7° 992.2 hPa 7.2 m/s 0.0 mm 1.1° 987.2 hPa 6.9 m/s 75.2 mm 0.4° 995.9 hPa 4.0 m/s 0.0 mm 2.2° 989.1 hPa 8.8 m/s 0.0 mm 1.3° 993.5 hPa 5.6 m/s
16:00 -0.2° 995.2 hPa 4.7 m/s 0.0 mm -1.3° 990.0 hPa 4.5 m/s 75.2 mm -1.2° 998.1 hPa 2.5 m/s 0.0 mm 1.6° 991.9 hPa 7.2 m/s 0.0 mm -0.0° 995.8 hPa 3.3 m/s
19:00 -1.7° 997.2 hPa 2.9 m/s 0.0 mm -1.3° 991.2 hPa 4.6 m/s 75.2 mm -1.9° 999.4 hPa 2.0 m/s 0.0 mm 0.2° 994.6 hPa 4.6 m/s 0.0 mm -1.7° 997.8 hPa 1.7 m/s
22:00 -1.7° 997.6 hPa 3.3 m/s 0.0 mm -1.0° 991.1 hPa 4.3 m/s 75.2 mm -1.7° 998.8 hPa 3.3 m/s 0.0 mm -1.1° 994.8 hPa 2.9 m/s 0.0 mm -1.6° 998.4 hPa 2.9 m/s
 08:22     15:41    Daglengte: 7:19 Vrijdag 03 Dec
01:00 -0.2° 996.6 hPa 4.3 m/s 0.0 mm 0.9° 988.7 hPa 6.4 m/s 81.3 mm 0.2° 997.9 hPa 4.4 m/s 0.0 mm 0.3° 994.3 hPa 4.2 m/s 0.0 mm 0.1° 997.8 hPa 3.4 m/s
04:00 -0.4° 997.0 hPa 3.8 m/s 10.4 mm -0.6° 989.8 hPa 3.7 m/s 87.5 mm 0.8° 998.0 hPa 3.7 m/s 0.6 mm -0.8° 997.3 hPa 2.9 m/s
07:00 1.1° 997.4 hPa 3.6 m/s 19.8 mm -1.4° 992.1 hPa 1.8 m/s 91.2 mm 1.2° 998.1 hPa 3.4 m/s 1.2 mm -0.6° 998.0 hPa 2.9 m/s
10:00 1.0° 998.9 hPa 3.5 m/s 16.8 mm -2.5° 994.7 hPa 2.2 m/s 91.4 mm 1.4° 999.5 hPa 3.5 m/s 0.7 mm 1.0° 999.9 hPa 2.9 m/s
13:00 1.7° 999.0 hPa 3.5 m/s 0.0 mm -1.1° 996.3 hPa 1.3 m/s 91.4 mm 2.0° 999.2 hPa 3.4 m/s 0.0 mm 2.0° 1000.6 hPa 3.7 m/s
16:00 1.1° 998.8 hPa 3.1 m/s 31.3 mm -1.4° 997.6 hPa 2.1 m/s 91.4 mm 1.6° 998.5 hPa 3.1 m/s 1.3 mm 1.6° 1001.3 hPa 2.0 m/s
19:00 1.0° 998.0 hPa 4.6 m/s 31.2 mm -2.0° 997.9 hPa 2.2 m/s 91.4 mm 1.9° 996.2 hPa 5.0 m/s 1.2 mm 1.2° 1001.5 hPa 2.5 m/s
22:00 1.3° 997.3 hPa 4.5 m/s 23.4 mm -1.8° 997.6 hPa 2.6 m/s 91.4 mm 2.5° 994.2 hPa 4.6 m/s 0.9 mm 1.5° 1001.6 hPa 4.0 m/s
 08:23     15:40    Daglengte: 7:17 Zaterdag 04 Dec
01:00 1.1° 996.1 hPa 4.2 m/s 33.3 mm -0.1° 996.4 hPa 4.1 m/s 91.4 mm 3.2° 994.4 hPa 3.4 m/s 0.0 mm 2.2° 1000.5 hPa 3.9 m/s
04:00 2.3° 994.3 hPa 3.4 m/s 0.0 mm 0.4° 994.3 hPa 6.5 m/s 91.9 mm 2.8° 994.3 hPa 2.6 m/s 0.0 mm 2.0° 998.8 hPa 4.4 m/s
07:00 3.0° 993.7 hPa 3.0 m/s 0.0 mm 1.7° 992.5 hPa 5.1 m/s 93.9 mm 3.3° 994.0 hPa 2.4 m/s 0.0 mm 1.8° 997.3 hPa 6.1 m/s
10:00 1.7° 992.0 hPa 4.9 m/s 98.3 mm 1.7° 992.0 hPa 4.9 m/s 98.3 mm 2.0° 996.8 hPa 7.2 m/s
13:00 1.5° 990.8 hPa 4.6 m/s 104.6 mm 1.5° 990.8 hPa 4.6 m/s 104.6 mm 1.5° 995.6 hPa 6.6 m/s
16:00 1.6° 995.7 hPa 6.5 m/s 34.4 mm 1.6° 995.7 hPa 6.5 m/s 34.4 mm
19:00 1.8° 996.1 hPa 6.4 m/s 35.5 mm 1.8° 996.1 hPa 6.4 m/s 35.5 mm
22:00 2.0° 996.6 hPa 6.3 m/s 36.5 mm 2.0° 996.6 hPa 6.3 m/s 36.5 mm
 08:25     15:40    Daglengte: 7:15 Zondag 05 Dec
01:00 2.4° 996.6 hPa 6.0 m/s 37.3 mm 2.4° 996.6 hPa 6.0 m/s 37.3 mm
04:00 2.5° 997.2 hPa 5.2 m/s 38.8 mm 2.5° 997.2 hPa 5.2 m/s 38.8 mm
07:00 3.1° 998.4 hPa 1.6 m/s 40.7 mm 3.1° 998.4 hPa 1.6 m/s 40.7 mm
10:00 2.6° 1001.0 hPa 4.9 m/s 44.2 mm 2.6° 1001.0 hPa 4.9 m/s 44.2 mm
13:00 2.8° 1003.0 hPa 4.0 m/s 48.9 mm 2.8° 1003.0 hPa 4.0 m/s 48.9 mm
16:00 3.3° 1005.3 hPa 3.9 m/s 49.4 mm 3.3° 1005.3 hPa 3.9 m/s 49.4 mm
19:00 2.3° 1007.7 hPa 2.6 m/s 49.4 mm 2.3° 1007.7 hPa 2.6 m/s 49.4 mm
22:00 2.1° 1009.8 hPa 2.6 m/s 49.4 mm 2.1° 1009.8 hPa 2.6 m/s 49.4 mm
 08:26     15:39    Daglengte: 7:13 Maandag 06 Dec
01:00 2.0° 1010.8 hPa 2.8 m/s 49.4 mm 2.0° 1010.8 hPa 2.8 m/s 49.4 mm
04:00 3.2° 1012.4 hPa 3.3 m/s 49.4 mm 3.2° 1012.4 hPa 3.3 m/s 49.4 mm
07:00 2.5° 1013.9 hPa 2.7 m/s 49.4 mm 2.5° 1013.9 hPa 2.7 m/s 49.4 mm
10:00 2.3° 1015.7 hPa 2.3 m/s 49.5 mm 2.3° 1015.7 hPa 2.3 m/s 49.5 mm
13:00 2.8° 1015.6 hPa 3.2 m/s 49.5 mm 2.8° 1015.6 hPa 3.2 m/s 49.5 mm
16:00 2.3° 1016.5 hPa 2.4 m/s 49.5 mm 2.3° 1016.5 hPa 2.4 m/s 49.5 mm
19:00 1.9° 1017.4 hPa 2.9 m/s 49.6 mm 1.9° 1017.4 hPa 2.9 m/s 49.6 mm
22:00 0.9° 1018.5 hPa 1.4 m/s 49.6 mm 0.9° 1018.5 hPa 1.4 m/s 49.6 mm
 08:27     15:38    Daglengte: 7:11 Dinsdag 07 Dec
01:00 0.7° 1019.1 hPa 2.3 m/s 49.6 mm 0.7° 1019.1 hPa 2.3 m/s 49.6 mm
04:00 0.6° 1019.7 hPa 2.4 m/s 49.6 mm 0.6° 1019.7 hPa 2.4 m/s 49.6 mm
07:00 1.1° 1019.9 hPa 2.1 m/s 49.6 mm 1.1° 1019.9 hPa 2.1 m/s 49.6 mm
10:00 1.5° 1020.5 hPa 2.8 m/s 49.6 mm 1.5° 1020.5 hPa 2.8 m/s 49.6 mm
13:00 2.3° 1020.7 hPa 2.6 m/s 49.7 mm 2.3° 1020.7 hPa 2.6 m/s 49.7 mm
16:00 2.5° 1020.8 hPa 2.4 m/s 49.7 mm 2.5° 1020.8 hPa 2.4 m/s 49.7 mm
19:00 2.2° 1020.8 hPa 2.9 m/s 49.7 mm 2.2° 1020.8 hPa 2.9 m/s 49.7 mm
22:00 2.5° 1021.3 hPa 3.4 m/s 49.8 mm 2.5° 1021.3 hPa 3.4 m/s 49.8 mm
 08:29     15:38    Daglengte: 7:09 Woensdag 08 Dec
01:00 2.3° 1021.3 hPa 3.3 m/s 49.8 mm 2.3° 1021.3 hPa 3.3 m/s 49.8 mm
04:00 2.2° 1021.1 hPa 4.0 m/s 49.8 mm 2.2° 1021.1 hPa 4.0 m/s 49.8 mm
07:00 2.5° 1021.1 hPa 4.6 m/s 49.9 mm 2.5° 1021.1 hPa 4.6 m/s 49.9 mm
10:00 3.3° 1021.9 hPa 4.8 m/s 49.9 mm 3.3° 1021.9 hPa 4.8 m/s 49.9 mm
13:00 4.2° 1021.8 hPa 5.0 m/s 49.9 mm 4.2° 1021.8 hPa 5.0 m/s 49.9 mm
19:00 3.7° 1023.5 hPa 5.3 m/s 50.0 mm 3.7° 1023.5 hPa 5.3 m/s 50.0 mm
 08:30     15:38    Daglengte: 7:08 Donderdag 09 Dec
01:00 2.9° 1024.5 hPa 4.3 m/s 50.0 mm 2.9° 1024.5 hPa 4.3 m/s 50.0 mm
07:00 2.1° 1025.1 hPa 4.4 m/s 50.0 mm 2.1° 1025.1 hPa 4.4 m/s 50.0 mm
13:00 3.6° 1025.7 hPa 5.1 m/s 50.0 mm 3.6° 1025.7 hPa 5.1 m/s 50.0 mm
19:00 2.3° 1025.6 hPa 5.3 m/s 50.0 mm 2.3° 1025.6 hPa 5.3 m/s 50.0 mm
 08:31     15:37    Daglengte: 7:06 Vrijdag 10 Dec
01:00 1.8° 1025.6 hPa 4.6 m/s 50.0 mm 1.8° 1025.6 hPa 4.6 m/s 50.0 mm
07:00 1.4° 1025.7 hPa 4.9 m/s 50.0 mm 1.4° 1025.7 hPa 4.9 m/s 50.0 mm
13:00 2.8° 1026.8 hPa 4.2 m/s 50.0 mm 2.8° 1026.8 hPa 4.2 m/s 50.0 mm
19:00 2.4° 1028.6 hPa 4.6 m/s 50.0 mm 2.4° 1028.6 hPa 4.6 m/s 50.0 mm
 08:32     15:37    Daglengte: 7:05 Zaterdag 11 Dec
01:00 2.3° 1031.4 hPa 2.7 m/s 50.0 mm 2.3° 1031.4 hPa 2.7 m/s 50.0 mm
07:00 4.0° 1011.4 hPa 5.1 m/s 0.5 mm
13:00 4.8° 1011.2 hPa 5.6 m/s 0.4 mm
19:00 4.7° 1010.7 hPa 5.8 m/s 1.2 mm
 08:33     15:37    Daglengte: 7:04 Zondag 12 Dec
01:00 4.5° 1011.6 hPa 5.5 m/s 0.6 mm
07:00 4.5° 1010.9 hPa 5.6 m/s 0.7 mm
13:00 5.4° 1011.2 hPa 5.6 m/s 0.0 mm
19:00 5.2° 1011.6 hPa 5.5 m/s 0.0 mm
 08:35     15:37    Daglengte: 7:02 Maandag 13 Dec
01:00 4.8° 1013.1 hPa 5.3 m/s 0.4 mm
07:00 4.7° 1013.5 hPa 5.3 m/s 0.2 mm
13:00 5.4° 1014.1 hPa 5.5 m/s 0.4 mm
19:00 5.0° 1014.8 hPa 5.3 m/s 0.5 mm
 08:35     15:37    Daglengte: 7:02 Dinsdag 14 Dec
01:00 5.0° 1016.3 hPa 5.7 m/s 0.4 mm
07:00 5.0° 1016.5 hPa 5.0 m/s 0.5 mm
13:00 5.7° 1017.9 hPa 4.9 m/s 0.3 mm
19:00 5.0° 1018.6 hPa 3.9 m/s 0.2 mm
 08:36     15:37    Daglengte: 7:01 Woensdag 15 Dec
01:00 4.9° 1018.5 hPa 4.8 m/s 0.8 mm
07:00 5.1° 1017.5 hPa 4.4 m/s 0.8 mm
13:00 5.8° 1017.3 hPa 5.3 m/s 0.6 mm
19:00 5.4° 1016.1 hPa 5.0 m/s 0.6 mm
 08:37     15:37    Daglengte: 7:00 Donderdag 16 Dec
01:00 5.4° 1015.5 hPa 5.0 m/s 0.0 mm
07:00 5.3° 1015.4 hPa 4.7 m/s 0.7 mm
FMI Hirlam - 7.5 km EWN WRFDA - 12 km DWD ICON - 7 km GFS - 25 km Basiskaart






























































Updatetijd (Europe/Amsterdam) Resolutie Lengte Stap
FMI Hirlam 06:00, 12:00, 18:00, 00:00 7.5 km 49h 1h
EWN WRFDA 08:45, 14:45, 20:45, 02:45 12 km 73h 1h
DWD ICON 10:45, 16:45, 22:45, 04:45 7 km 75h 1h
GFS 07:30, 13:30, 19:30, 01:30 25 km 237h 3h
30+ mm
25-30 mm
20-25 mm
15-20 mm
10-15 mm
6-10 mm
4-6 mm
2-4 mm
1-2 mm
0.5-1 mm
0.2-0.5 mm
0.1-0.2 mm
30+ mm
25-30 mm
20-25 mm
15-20 mm
10-15 mm
6-10 mm
4-6 mm
2-4 mm
1-2 mm
0.5-1 mm
0.2-0.5 mm
0.1-0.2 mm
Sneeuwval
Natte sneeuw
Hagel
Vorst
30+ mm
25-30 mm
20-25 mm
15-20 mm
10-15 mm
6-10 mm
4-6 mm
2-4 mm
1-2 mm
0.5-1 mm
0.2-0.5 mm
0.1-0.2 mm
Sneeuwval
Natte sneeuw
Hagel
Vorst
Onweer
50 mm
40 mm
30 mm
26 mm
22 mm
18 mm
14 mm
10 mm
9 mm
8 mm
7 mm
6 mm
5 mm
4.5 mm
4 mm
3.5 mm
3 mm
2.5 mm
2 mm
1.5 mm
1 mm
0.8 mm
0.6 mm
0.4 mm
0.2 mm
0.05 mm
35°
30°
25°
20°
15°
10°
-5°
-10°
-15°
-20°
-25°
-30°
-35°
33> m/s
29 m/s
25 m/s
21 m/s
17 m/s
14 m/s
11 m/s
8 m/s
5 m/s
3 m/s
0 m/s
2600 J/kg
2400 J/kg
2200 J/kg
2000 J/kg
1800 J/kg
1600 J/kg
1400 J/kg
1200 J/kg
1000 J/kg
800 J/kg
600 J/kg
400 J/kg
200 J/kg
70 dBZ
65 dBZ
60 dBZ
55 dBZ
50 dBZ
45 dBZ
40 dBZ
35 dBZ
30 dBZ
25 dBZ
20 dBZ
15 dBZ
10 dBZ
5 dBZ
-1 K
-2 K
-3 K
-4 K
-5 K
-6 K
-7 K
-8 K
-9 K
950 m²/s²
900 m²/s²
850 m²/s²
800 m²/s²
750 m²/s²
700 m²/s²
650 m²/s²
600 m²/s²
550 m²/s²
500 m²/s²
450 m²/s²
400 m²/s²
350 m²/s²
300 m²/s²
250 m²/s²
200 m²/s²
150 m²/s²
100 m²/s²
46 m/s
44 m/s
42 m/s
40 m/s
38 m/s
36 m/s
34 m/s
32 m/s
30 m/s
28 m/s
26 m/s
24 m/s
22 m/s
20 m/s
16 m/s
12 m/s
8 m/s
4 m/s
30 m/s
28 m/s
26 m/s
24 m/s
22 m/s
20 m/s
18 m/s
16 m/s
14 m/s
12 m/s
10 m/s
8 m/s
6 m/s
4 m/s
2 m/s
3.0
2.8
2.6
2.4
2.2
2.0
1.8
1.6
1.4
1.2
1.0
0.8
0.6
0.4
0.2
15
14
13
12
11
10
9
8
7
6
5
4
3
2
1
90%
80%
70%
60%
50%
40%
30%
20%
10%
42
40
38
36
34
32
30
28
26
24
22
20
18
16
14
12
90+ cm
80-90 cm
70-80 cm
60-70 cm
50-60 cm
40-50 cm
30-40 cm
20-30 cm
10-20 cm
1-10 cm
Sneeuwval
Natte sneeuw
Regen
>120 mm
115 mm
110 mm
105 mm
100 mm
95 mm
90 mm
85 mm
80 mm
75 mm
70 mm
65 mm
60 mm
55 mm
50 mm
45 mm
45 mm
40 mm
35 mm
30 mm
25 mm
20 mm
15 mm
10 mm
5 mm
0.1 mm
960 hPa
880 hPa
800 hPa
720 hPa
640 hPa